Left ArrowRight Arrow

-33.86785, 151.20732

Hourly Observations for June 6, 2022

Temp ( °F °C ) Dew Point ( °F °C ) Humidity (%) Winds ( mph kmh ) Pressure ( in mb ) Visibility ( mi km ) Precip ( " mm )
12:00 am 00:00 Mostly Clear 54 12 41 5 63 63 N 18 30 29.68 1005 7 11 N/A
12:30 am 00:30 Mostly Clear 54 12 41 5 63 63 N 20 31 29.65 1004 7 11 N/A
1:00 am 01:00 Mostly Clear 54 12 41 5 63 63 N 21 33 29.65 1004 7 11 N/A
1:30 am 01:30 Mostly Clear 54 12 41 5 63 63 N 21 33 29.62 1003 7 11 N/A
2:00 am 02:00 Mostly Clear 54 12 41 5 63 63 N 20 31 29.62 1003 7 11 N/A
2:30 am 02:30 Mostly Clear 54 12 41 5 63 63 N 20 31 29.59 1002 7 11 N/A
3:00 am 03:00 Mostly Clear 54 12 41 5 63 63 N 20 31 29.59 1002 7 11 N/A
3:30 am 03:30 Mostly Clear 54 12 43 6 67 67 N 20 31 29.56 1001 7 11 N/A
4:00 am 04:00 Mostly Clear 54 12 41 5 63 63 NNW 21 33 29.56 1001 7 11 N/A
4:30 am 04:30 Mostly Clear 54 12 41 5 63 63 NNW 18 30 29.56 1001 7 11 N/A
5:00 am 05:00 Mostly Clear 57 14 43 6 59 59 NW 18 30 29.59 1002 7 11 N/A
5:19 am 05:19 Mostly Cloudy with Drizzle 57 14 43 6 59 59 NW 17 28 29.62 1003 30 48 N/A
5:22 am 05:22 Windy with Rain Showers Likely 54 12 43 6 67 67 W 26 43 29.65 1004 5 8 N/A
5:30 am 05:30 Windy with Rain Showers Likely 52 11 45 7 77 77 W 29 46 29.65 1004 5 8 N/A
6:00 am 06:00 Mostly Cloudy with Showers Nearby 54 12 41 5 63 63 WNW 17 28 29.65 1004 30 48 N/A
6:30 am 06:30 Mostly Cloudy 54 12 37 3 54 54 NW 20 31 29.65 1004 30 48 N/A
7:00 am 07:00 Partly Cloudy 54 12 37 3 54 54 WNW 20 31 29.68 1005 30 48 N/A
7:30 am 07:30 Mostly Sunny 54 12 36 2 51 51 NW 22 35 29.68 1005 7 11 N/A
8:30 am 08:30 Mostly Sunny 54 12 36 2 51 51 WNW 29 46 29.65 1004 7 11 N/A
8:57 am 08:57 Mostly Sunny 55 13 36 2 47 47 WNW 32 52 29.65 1004 7 11 N/A
9:00 am 09:00 Mostly Sunny 55 13 36 2 47 47 WNW 33 54 29.65 1004 7 11 N/A
9:30 am 09:30 Mostly Sunny 57 14 36 2 44 44 WNW 30 48 29.65 1004 7 11 N/A
10:00 am 10:00 Mostly Sunny 59 15 36 2 42 42 WNW 36 57 29.68 1005 7 11 N/A
10:30 am 10:30 Mostly Sunny 59 15 34 1 39 39 WNW 33 54 29.65 1004 7 11 N/A
11:00 am 11:00 Mostly Sunny 61 16 34 1 36 36 WNW 33 54 29.68 1005 7 11 N/A
11:30 am 11:30 Mostly Sunny 61 16 32 0 34 34 WNW 35 56 29.65 1004 7 11 N/A
12:00 pm 12:00 Mostly Sunny 61 16 32 0 34 34 WNW 29 46 29.65 1004 7 11 N/A
12:30 pm 12:30 Mostly Sunny 61 16 32 0 34 34 W 31 50 29.68 1005 7 11 N/A
12:38 pm 12:38 Mostly Sunny 63 17 34 1 34 34 W 30 48 29.68 1005 7 11 N/A
1:00 pm 13:00 Mostly Sunny 63 17 34 1 34 34 W 28 44 29.68 1005 7 11 N/A
1:30 pm 13:30 Mostly Sunny 63 17 32 0 32 32 W 26 43 29.68 1005 7 11 N/A
2:00 pm 14:00 Mostly Sunny 63 17 32 0 32 32 W 21 33 29.68 1005 7 11 N/A
2:30 pm 14:30 Mostly Sunny 64 18 32 0 30 30 W 22 35 29.68 1005 7 11 N/A
3:00 pm 15:00 Mostly Sunny 64 18 32 0 30 30 W 22 35 29.71 1006 7 11 N/A
3:30 pm 15:30 Mostly Sunny 63 17 28 -2 27 27 W 22 35 29.71 1006 7 11 N/A
4:00 pm 16:00 Mostly Sunny 63 17 28 -2 27 27 WNW 22 35 29.71 1006 7 11 N/A
4:30 pm 16:30 Mostly Sunny 61 16 28 -2 29 29 WNW 20 31 29.74 1007 7 11 N/A
5:00 pm 17:00 Mostly Clear 59 15 28 -2 31 31 W 20 31 29.74 1007 7 11 N/A
5:30 pm 17:30 Mostly Clear 59 15 28 -2 31 31 W 14 22 29.77 1008 7 11 N/A
6:00 pm 18:00 Mostly Clear 57 14 30 -1 36 36 WNW 12 19 29.77 1008 30 48 N/A
6:30 pm 18:30 Mostly Clear 57 14 30 -1 36 36 WNW 10 17 29.80 1009 30 48 N/A
7:00 pm 19:00 Mostly Clear 55 13 32 0 41 41 W 12 19 29.80 1009 30 48 N/A
7:30 pm 19:30 Mostly Clear 54 12 34 1 47 47 W 9 15 29.83 1010 30 48 N/A
8:00 pm 20:00 Mostly Clear 54 12 34 1 47 47 W 9 15 29.83 1010 7 11 N/A
8:30 pm 20:30 Mostly Clear 55 13 34 1 44 44 WNW 8 13 29.86 1011 7 11 N/A
9:00 pm 21:00 Mostly Clear 54 12 34 1 47 47 NW 10 17 29.86 1011 7 11 N/A
9:30 pm 21:30 Mostly Clear 54 12 34 1 47 47 NW 10 17 29.86 1011 7 11 N/A
10:00 pm 22:00 Mostly Clear 52 11 36 2 54 54 W 9 15 29.86 1011 7 11 N/A
10:30 pm 22:30 Mostly Clear 52 11 36 2 54 54 W 6 9 29.86 1011 7 11 N/A
11:00 pm 23:00 Mostly Clear 52 11 36 2 54 54 WNW 10 17 29.86 1011 7 11 N/A
11:30 pm 23:30 Mostly Clear 52 11 36 2 54 54 N 5 7 29.86 1011 7 11 N/A

Powered by Vaisala Xweather